Stations météo

réclame
Mon MeteoGroup
Aberdeen/Dyce, Grande-Bretagne (3091): Température de l'air & dewpoint: 13.12.2018 14:00:00 - 19.12.2018 14:00:00 (GMT)Aberdeen/Dyce, Grande-Bretagne (3091): Température de l'air -20cm & Température de l'air -100cm: 13.12.2018 14:00:00 - 19.12.2018 14:00:00 (GMT)Aberdeen/Dyce, Grande-Bretagne (3091): Vitesse du vent & gusts: 13.12.2018 14:00:00 - 19.12.2018 14:00:00 (GMT)Aberdeen/Dyce, Grande-Bretagne (3091): Direction du vent: 13.12.2018 14:00:00 - 19.12.2018 14:00:00 (GMT)Aberdeen/Dyce, Grande-Bretagne (3091): reduced air pressure: 13.12.2018 14:00:00 - 19.12.2018 14:00:00 (GMT)Aberdeen/Dyce, Grande-Bretagne (3091): visibility: 13.12.2018 14:00:00 - 19.12.2018 14:00:00 (GMT)Aberdeen/Dyce, Grande-Bretagne (3091): Ensoleillement: 13.12.2018 14:00:00 - 19.12.2018 14:00:00 (GMT)Aberdeen/Dyce, Grande-Bretagne (3091): Quantités de précipitations: 13.12.2018 14:00:00 - 19.12.2018 14:00:00 (GMT)
Date & Time tt [°C] td [°C] tt -20cm [°C] tt -100cm [°C] ff [km/h] ff [knt] fx [km/h] fx [knt] dd ppp [hPa] vv [km] sd [min] rr [mm]
19.12.2018 14:00:00 - - - - - - - - - - - - -
19.12.2018 13:00:00 6,5 5,3 - - 15 8 - - SSE 997,5 10 24 0,0
19.12.2018 12:00:00 6,0 4,8 - - 11 6 - - SSE 997,6 10 42 0,0
19.12.2018 11:00:00 5,5 4,2 - - 15 8 - - S 997,7 22 24 0,0
19.12.2018 10:00:00 5,8 4,1 - - 13 7 - - S 997,6 10 6 0,0
19.12.2018 09:00:00 4,7 3,2 6,0 7,5 9 5 - - S 997,0 10 0 0,0
19.12.2018 08:00:00 4,6 3,3 - - 9 5 - - S 996,5 10 0 0,0
19.12.2018 07:00:00 5,4 4,2 - - 15 8 - - SSW 996,0 10 0 0,0
19.12.2018 06:00:00 5,3 4,2 - - 15 8 - - S 995,5 10 0 0,0
19.12.2018 05:00:00 5,6 4,5 - - 15 8 - - S 995,2 35 0 0,0
19.12.2018 04:00:00 5,9 4,5 - - 13 7 - - S 995,3 10 0 0,0
19.12.2018 03:00:00 6,0 5,0 - - 13 7 - - S 995,2 10 0 0,0
19.12.2018 02:00:00 6,9 5,7 - - 9 5 - - S 995,1 10 0 0,0
19.12.2018 01:00:00 7,2 5,8 - - 15 8 - - S 995,0 10 0 0,0
19.12.2018 00:00:00 7,2 5,9 - - 16 9 - - S 995,2 10 - 0,0
18.12.2018 23:00:00 7,2 5,9 - - 18 10 - - S 995,3 10 0 0,0
18.12.2018 22:00:00 7,3 6,0 - - 26 14 - - S 994,7 10 0 0,0
18.12.2018 21:00:00 7,3 5,9 - - 29 16 - - S 995,0 10 0 0,0
18.12.2018 20:00:00 7,6 6,3 - - 24 13 - - S 995,1 10 0 0,0
18.12.2018 19:00:00 7,9 6,9 - - 24 13 - - S 995,1 13 0 0,0
18.12.2018 18:00:00 7,7 6,6 - - 16 9 - - S 995,2 10 0 0,2
18.12.2018 17:00:00 7,9 6,9 - - 21 11 48 26 S 995,3 22 0 1,4
18.12.2018 16:00:00 8,4 7,7 - - 48 26 80 43 S 995,2 3,2 0 1,0
18.12.2018 15:00:00 8,8 8,0 - - 52 28 89 48 S 994,6 6 0 0,4
18.12.2018 14:00:00 8,7 7,8 - - 48 26 74 40 S 994,8 7 0 0,8
18.12.2018 13:00:00 8,7 7,9 - - 52 28 76 41 S 995,5 6 0 1,0
18.12.2018 12:00:00 8,4 7,6 - - 52 28 76 41 SSE 996,2 6 0 1,0
18.12.2018 11:00:00 8,6 7,8 - - 52 28 - - SSE 997,0 6 0 0,4
18.12.2018 10:00:00 8,6 7,9 - - 55 30 - - SSE 997,4 7 0 1,2
18.12.2018 09:00:00 8,8 7,3 5,7 7,7 57 31 - - SSE 998,5 8 0 0,0
18.12.2018 08:00:00 8,8 7,3 - - 39 21 - - SSE 999,7 10 0 0,0
18.12.2018 07:00:00 9,0 7,5 - - 48 26 - - SSE 1000,5 10 0 0,0
18.12.2018 06:00:00 8,6 7,3 - - 44 24 - - SSE 1001,4 9 0 0,0
18.12.2018 05:00:00 8,5 7,2 - - 37 20 - - SSE 1002,5 9 0 0,0
18.12.2018 04:00:00 8,5 7,2 - - 44 24 - - SSE 1003,6 10 0 0,0
18.12.2018 03:00:00 8,5 6,9 - - 41 22 - - SSE 1004,1 10 0 0,0
18.12.2018 02:00:00 8,4 7,0 - - 34 18 - - SSE 1004,6 10 0 0,0
18.12.2018 01:00:00 8,2 6,7 - - 34 18 - - SSE 1006,0 10 0 0,0
18.12.2018 00:00:00 8,0 6,4 - - 44 24 - - S 1006,2 10 - 0,0
17.12.2018 23:00:00 7,5 6,2 - - 50 27 - - S 1006,8 10 0 0,0
17.12.2018 22:00:00 7,3 6,2 - - 31 17 - - SSE 1007,5 10 0 0,0
17.12.2018 21:00:00 7,4 6,0 - - 41 22 - - SSE 1008,0 10 0 0,0
17.12.2018 20:00:00 6,9 5,8 - - 35 19 - - SSE 1009,0 6 0 0,0
17.12.2018 19:00:00 6,9 5,3 - - 31 17 - - SSE 1009,5 10 0 0,0
17.12.2018 18:00:00 5,7 4,5 - - 21 11 - - SSE 1009,6 10 0 0,0
17.12.2018 17:00:00 4,4 3,8 - - 11 6 - - S 1010,3 10 0 0,0
17.12.2018 16:00:00 3,5 2,2 - - 13 7 - - SSE 1010,2 10 0 0,0
17.12.2018 15:00:00 4,1 2,7 - - 18 10 - - S 1009,9 10 0 0,0
17.12.2018 14:00:00 4,6 3,2 - - 18 10 - - S 1010,2 10 0 0,0
17.12.2018 13:00:00 4,2 2,7 - - 13 7 - - S 1010,1 10 36 0,0
17.12.2018 12:00:00 4,5 2,7 - - 16 9 - - SSE 1009,9 10 60 0,0
17.12.2018 11:00:00 4,0 2,1 - - 9 5 - - SSE 1009,8 50 60 0,2
17.12.2018 10:00:00 3,1 1,7 - - 9 5 - - S 1009,7 10 36 0,0
17.12.2018 09:00:00 2,2 1,4 5,7 7,7 5 3 - - - 1009,2 10 0 0,0
17.12.2018 08:00:00 2,8 1,7 - - 5 3 - - - 1008,4 10 0 0,0
17.12.2018 07:00:00 3,0 2,2 - - 5 3 - - SSW 1007,8 10 0 0,0
17.12.2018 06:00:00 4,0 3,0 - - 5 3 - - - 1007,4 10 0 0,0
17.12.2018 05:00:00 4,5 3,5 - - 13 7 - - S 1006,8 10 0 0,0
17.12.2018 04:00:00 5,0 3,7 - - 9 5 - - S 1006,4 10 0 0,4
17.12.2018 03:00:00 5,1 3,5 - - 5 3 - - - 1006,2 10 0 0,0
17.12.2018 02:00:00 4,5 3,0 - - 9 5 - - S 1005,6 50 0 0,0
17.12.2018 01:00:00 2,5 1,1 - - 5 3 - - SSE 1005,0 10 0 0,0
17.12.2018 00:00:00 4,4 2,8 - - 9 5 - - SSE 1004,8 10 - 0,0
16.12.2018 23:00:00 3,3 1,5 - - 8 4 - - S 1004,4 10 0 0,0
16.12.2018 22:00:00 4,9 3,4 - - 13 7 - - SSW 1004,0 10 0 0,0
16.12.2018 21:00:00 4,4 3,4 - - 8 4 - - S 1003,7 10 0 0,0
16.12.2018 20:00:00 3,4 2,4 - - 15 8 - - S 1003,5 10 0 0,0
16.12.2018 19:00:00 3,2 1,8 - - 11 6 - - S 1003,2 27 0 0,0
16.12.2018 18:00:00 3,8 1,9 - - 16 9 - - S 1002,4 10 0 0,0
16.12.2018 17:00:00 3,0 1,4 - - 11 6 - - SSE 1001,7 27 0 0,0
16.12.2018 16:00:00 3,5 1,5 - - 4 2 - - - 1001,0 10 0 0,0
16.12.2018 15:00:00 4,8 1,7 - - 8 4 - - SE 1000,0 10 30 0,0
16.12.2018 14:00:00 6,3 2,1 - - 4 2 - - E 998,9 45 60 0,0
16.12.2018 13:00:00 6,4 2,0 - - 13 7 - - SW 998,4 10 60 0,0
16.12.2018 12:00:00 5,8 2,0 - - 21 11 - - SW 997,6 10 54 0,0
16.12.2018 11:00:00 5,2 1,7 - - 11 6 - - SW 996,3 10 36 0,0
16.12.2018 10:00:00 3,8 1,1 - - 18 10 - - SSW 995,0 10 0 0,0
16.12.2018 09:00:00 3,7 1,3 5,7 7,7 24 13 - - SSW 993,2 10 0 0,0
16.12.2018 08:00:00 3,3 1,3 - - 28 15 - - SSW 990,9 10 0 0,0
16.12.2018 07:00:00 2,0 0,8 - - 24 13 - - S 990,0 10 0 0,0
16.12.2018 06:00:00 3,6 2,3 - - 15 8 - - S 989,2 10 0 0,2
16.12.2018 05:00:00 4,1 3,0 - - 13 7 - - WSW 988,1 10 0 0,4
16.12.2018 04:00:00 5,3 4,0 - - 21 11 61 33 SSW 987,6 7 0 1,0
16.12.2018 03:00:00 6,2 5,6 - - 31 17 65 35 SSE 987,9 3,8 0 1,8
16.12.2018 02:00:00 5,6 5,1 - - 39 21 70 38 SSE 988,9 2,6 0 0,4
16.12.2018 01:00:00 4,7 4,1 - - 42 23 78 42 SE 990,1 2,9 0 0,8
16.12.2018 00:00:00 3,8 3,2 - - 46 25 74 40 SE 991,6 4,4 - 3,6
15.12.2018 23:00:00 3,6 3,1 - - 44 24 85 46 SSE 993,2 4,6 0 5,2
15.12.2018 22:00:00 3,6 2,9 - - 50 27 83 45 SE 994,5 2,9 0 4,8
15.12.2018 21:00:00 3,5 2,9 - - 59 32 81 44 SSE 995,7 1,9 0 5,2
15.12.2018 20:00:00 3,7 2,9 - - 46 25 80 43 SSE 996,6 4,7 0 4,4
15.12.2018 19:00:00 4,3 2,9 - - 52 28 85 46 SSE 998,0 4,6 0 1,0
15.12.2018 18:00:00 4,9 1,8 - - 50 27 87 47 SSE 998,8 9 0 0,0
15.12.2018 17:00:00 4,8 1,8 - - 55 30 78 42 SE 1000,4 8 0 0,0
15.12.2018 16:00:00 4,3 2,0 - - 63 34 91 49 SSE 1001,7 6 0 0,0
15.12.2018 15:00:00 5,2 -0,2 - - 42 23 78 42 SSE 1003,5 10 0 0,0
15.12.2018 14:00:00 5,1 0,0 - - 48 26 74 40 SSE 1005,5 10 0 0,0
15.12.2018 13:00:00 4,7 0,2 - - 50 27 74 40 SSE 1006,8 14 0 0,0
15.12.2018 12:00:00 4,7 -0,2 - - 50 27 72 39 SSE 1008,6 10 0 0,0
15.12.2018 11:00:00 4,8 -0,3 - - 46 25 67 36 SSE 1010,8 10 0 0,0
15.12.2018 10:00:00 4,8 0,0 - - 42 23 63 34 S 1012,8 17 0 0,0
15.12.2018 09:00:00 4,8 0,0 6,0 7,7 37 20 61 33 S 1013,3 10 0 0,0
15.12.2018 08:00:00 4,3 -0,5 - - 37 20 63 34 S 1012,0 25 0 0,0
15.12.2018 07:00:00 4,1 -1,6 - - 41 22 59 32 S 1013,5 10 0 0,0
15.12.2018 06:00:00 4,1 -1,5 - - 39 21 59 32 S 1014,5 27 0 0,0
15.12.2018 05:00:00 4,3 -1,5 - - 39 21 63 34 S 1015,3 10 0 0,0
15.12.2018 04:00:00 4,0 -1,9 - - 35 19 67 36 S 1015,8 10 0 0,0
15.12.2018 03:00:00 3,9 -1,9 - - 41 22 68 37 S 1016,4 10 0 0,0
15.12.2018 02:00:00 3,8 -2,0 - - 46 25 61 33 S 1017,2 10 0 0,0
15.12.2018 01:00:00 3,6 -2,3 - - 35 19 59 32 S 1017,2 10 0 0,0
15.12.2018 00:00:00 3,6 -2,3 - - 34 18 55 30 S 1017,9 10 - 0,0
14.12.2018 23:00:00 3,7 -2,7 - - 39 21 55 30 S 1018,6 10 0 0,0
14.12.2018 22:00:00 3,7 -2,7 - - 34 18 50 27 S 1019,2 10 0 0,0
14.12.2018 21:00:00 3,6 -2,0 - - 28 15 52 28 S 1019,3 10 0 0,0
14.12.2018 20:00:00 3,4 -1,9 - - 31 17 - - S 1019,3 10 0 0,0
14.12.2018 19:00:00 3,5 -1,5 - - 28 15 46 25 S 1019,7 10 0 0,0
14.12.2018 18:00:00 3,8 -1,4 - - 26 14 - - S 1020,0 10 0 0,0
14.12.2018 17:00:00 3,4 -2,0 - - 26 14 - - S 1020,5 10 0 0,0
14.12.2018 16:00:00 3,2 -0,9 - - 29 16 - - S 1021,0 10 0 0,0
14.12.2018 15:00:00 4,0 -0,5 - - 29 16 48 26 S 1021,1 10 12 0,0
14.12.2018 14:00:00 5,0 0,7 - - 26 14 - - S 1021,3 40 12 0,0
14.12.2018 13:00:00 4,1 2,1 - - 26 14 46 25 SSE 1021,9 10 0 0,0
14.12.2018 12:00:00 4,2 1,8 - - 16 9 46 25 S 1021,8 10 6 0,2
14.12.2018 11:00:00 4,4 2,5 - - 13 7 - - S 1022,1 10 0 1,0
14.12.2018 10:00:00 4,0 2,6 - - 21 11 - - S 1022,0 35 0 0,6
14.12.2018 09:00:00 4,0 2,3 6,2 7,7 13 7 - - S 1021,9 10 0 0,8
14.12.2018 08:00:00 3,9 2,0 - - 16 9 - - S 1021,9 10 0 0,2
14.12.2018 07:00:00 3,9 2,2 - - 22 12 - - S 1022,0 10 0 0,8
14.12.2018 06:00:00 4,2 2,0 - - 22 12 - - S 1022,4 30 0 0,4
14.12.2018 05:00:00 3,8 1,7 - - 21 11 - - SSW 1022,3 40 0 0,2
14.12.2018 04:00:00 5,2 1,5 - - 26 14 - - S 1022,5 10 0 0,0
14.12.2018 03:00:00 5,7 0,7 - - 29 16 - - SSE 1022,5 10 0 0,0
14.12.2018 02:00:00 5,5 0,9 - - 29 16 54 29 SSE 1022,3 10 0 0,0
14.12.2018 01:00:00 5,4 1,5 - - 22 12 - - SSE 1022,4 10 0 0,0
14.12.2018 00:00:00 5,7 0,8 - - 31 17 55 30 SSE 1022,3 10 - 0,0
13.12.2018 23:00:00 5,5 0,5 - - 28 15 - - SSE 1022,5 10 0 0,0
13.12.2018 22:00:00 5,5 1,2 - - 29 16 52 28 SSE 1022,4 10 0 0,0
13.12.2018 21:00:00 6,4 1,5 - - 34 18 46 25 SSE 1022,5 10 0 0,0
13.12.2018 20:00:00 6,1 1,2 - - 24 13 54 29 S 1022,3 35 0 0,0
13.12.2018 19:00:00 6,0 1,6 - - 29 16 52 28 S 1022,0 40 0 0,0
13.12.2018 18:00:00 6,3 1,3 - - 34 18 52 28 S 1021,4 30 0 0,0
13.12.2018 17:00:00 6,1 2,0 - - 39 21 52 28 SSE 1021,0 10 0 0,0
13.12.2018 16:00:00 5,8 3,1 - - 29 16 52 28 S 1020,6 22 0 0,0
13.12.2018 15:00:00 5,7 3,0 - - 34 18 48 26 S 1019,9 19 0 0,2
13.12.2018 14:00:00 5,8 3,4 - - 37 20 54 29 SSE 1019,7 10 0 0,2

tt = Température de l'air
td = dewpoint
tt -20cm = Température de l'air -20cm
tt -100cm = Température de l'air -100cm
ff = Vitesse du vent
fx = gusts
dd = Direction du vent
ppp = reduced air pressure
vv = visibility
sd = Ensoleillement
rr = Quantités de précipitations

stations d'obs. à proximité